Regional Weather Roundup
Issued by NWS Little Rock, AR

Home | Current Version | Previous Version | Graphics & Text | Print | Product List | Glossary On
Versions: 1 2 3 4 5 6 7 8 9 10 11 12 13 14 15 16 17 18 19 20 21 22 23 24 25 26 27 28 29 30 31 32 33 34 35 36 37 38 39 40 41 42 43 44 45 46 47 48 49 50
000
ASUS44 KLZK 100005
RWRLZK

WEATHER ROUNDUP FOR ARKANSAS
NATIONAL WEATHER SERVICE LITTLE ROCK AR
700 PM CDT WED JUL 09 2014

NOTE: "FAIR" INDICATES FEW OR NO CLOUDS BELOW 12,000 FEET WITH NO
SIGNIFICANT WEATHER AND/OR OBSTRUCTIONS TO VISIBILITY.

ARZ001-003-010-029-100100-
NORTHWEST ARKANSAS

CITY           SKY/WX    TMP DP  RH WIND       PRES   REMARKS
FAYETTEVILLE   SUNNY     80  63  55 CALM      30.03R
6HR MIN TEMP:  80; 6HR MAX TEMP:  86;

FORT SMITH     PTSUNNY   85  68  56 S6        29.98S HX  88
6HR MIN TEMP:  82; 6HR MAX TEMP:  87;

HARRISON       SUNNY     82  60  47 NE6       30.04S
6HR MIN TEMP:  81; 6HR MAX TEMP:  85;

BENTONVILLE    SUNNY     82  61  47 NE7       30.04S
6HR MIN TEMP:  82; 6HR MAX TEMP:  84;

ROGERS         SUNNY     81  62  52 N5        30.05S
6HR MIN TEMP:  81; 6HR MAX TEMP:  85;

SILOAM SPGS    SUNNY     82  59  44 N6        30.04S
6HR MIN TEMP:  82; 6HR MAX TEMP:  86;

HIGHFILL       SUNNY     83  63  50 N7        30.03S
6HR MIN TEMP:  83; 6HR MAX TEMP:  87;

SPRINGDALE     MOSUNNY   82  61  47 NE6       30.05S
$$

ARZ004-005-016-100100-
NORTH CENTRAL ARKANSAS

CITY           SKY/WX    TMP DP  RH WIND       PRES   REMARKS
BATESVILLE     MOSUNNY   86  64  48 CALM      29.99S HX  87
6HR MIN TEMP:  84; 6HR MAX TEMP:  88;

FLIPPIN          N/A     84  61  45 NE3       30.02R
6HR MIN TEMP:  82; 6HR MAX TEMP:  88;

MTN HOME       MOSUNNY   81  64  56 CALM      30.01S
6HR MIN TEMP:  80; 6HR MAX TEMP:  85;

$$

ARZ040-041-100100-
WEST CENTRAL ARKANSAS

CITY           SKY/WX    TMP DP  RH WIND       PRES   REMARKS
MENA           MOSUNNY  N/A N/A N/A CALM      30.03S
MOUNT IDA      MOSUNNY   82  73  74 CALM      30.00S HX  87
6HR MIN TEMP:  77; 6HR MAX TEMP:  84;

$$

ARZ009-017-025-026-028-100100-
NORTHEAST ARKANSAS

CITY           SKY/WX    TMP DP  RH WIND       PRES   REMARKS
CORNING        LGT RAIN  84  64  51 N7        29.99R HX  86
JONESBORO      MOSUNNY   85  65  51 N3        29.98S HX  86
6HR MIN TEMP:  81; 6HR MAX TEMP:  88;

NEWPORT        MOSUNNY   85  69  58 CALM      30.00R HX  89
6HR MIN TEMP:  83; 6HR MAX TEMP:  86;

WALNUT RIDGE   SUNNY     84  61  45 NW7       29.98S
6HR MIN TEMP:  84; 6HR MAX TEMP:  88;

BLYTHEVILLE    SUNNY     84  65  52 N6        29.98S HX  86
6HR MIN TEMP:  82; 6HR MAX TEMP:  88;

$$

ARZ022-023-033-042-044-100100-
CENTRAL ARKANSAS

CITY           SKY/WX    TMP DP  RH WIND       PRES   REMARKS
LITTLE ROCK    PTSUNNY   85  69  58 S6        29.99R HX  89
6HR MIN TEMP:  81; 6HR MAX TEMP:  88;

N LITTLE ROCK  PTSUNNY   83  70  65 SW2       29.99R HX  87
6HR MIN TEMP:  79; 6HR MAX TEMP:  84;

JACKSONVILLE   SUNNY     85  70  60 SW2       29.99S HX  89
6HR MIN TEMP:  81; 6HR MAX TEMP:  87;

SEARCY         PTSUNNY   84  72  67 W3        30.00R HX  89
6HR MIN TEMP:  83; 6HR MAX TEMP:  87;

HOT SPRINGS    MOSUNNY   82  72  71 S5        30.00S HX  87
RUSSELLVILLE   MOSUNNY   83  72  69 CALM      29.99R HX  88
6HR MIN TEMP:  82; 6HR MAX TEMP:  86;

CLINTON        FAIR      84  70  61 CALM      30.00R HAZE    HX  88
$$

ARZ036-100100-
EAST ARKANSAS

CITY           SKY/WX    TMP DP  RH WIND       PRES   REMARKS
WEST MEMPHIS   SUNNY     83  71  67 CALM      29.97S HX  87
6HR MIN TEMP:  77; 6HR MAX TEMP:  84;

$$

ARZ050-053-066-070-073-100100-
SOUTHWEST ARKANSAS

CITY           SKY/WX    TMP DP  RH WIND       PRES   REMARKS
ARKADELPHIA    FAIR      83  75  76 VRB3      30.00F HX  90
6HR MIN TEMP:  75; 6HR MAX TEMP:  83;

CAMDEN         PTSUNNY   82  68  61 CALM      30.00F HX  85
TEXARKANA      PTSUNNY   81  72  74 NE5       29.99F HX  85
6HR MIN TEMP:  76; 6HR MAX TEMP:  83; 6HR PCP: TRACE;

EL DORADO      PTSUNNY   83  74  74 N3        30.00S HX  89
6HR MIN TEMP:  82; 6HR MAX TEMP:  88;

DE QUEEN       MOSUNNY   84  73  69 E5        29.97F HX  90
6HR MIN TEMP:  74; 6HR MAX TEMP:  85; 6HR PCP: TRACE;

$$

ARZ056-057-069-100100-
SOUTHEAST ARKANSAS

CITY           SKY/WX    TMP DP  RH WIND       PRES   REMARKS
PINE BLUFF     PTSUNNY   80  69  69 SW8       30.00S
6HR MIN TEMP:  77; 6HR MAX TEMP:  83;

MONTICELLO     MOSUNNY   82  69  64 CALM      30.00S HX  85
6HR MIN TEMP:  80; 6HR MAX TEMP:  85;


$$




USA.gov is the U.S. government's official web portal to all federal, state and local government web resources and services.